Showing default

LANDSAT 1 (ERTS 1), 6126

Orbit data source: Space-Track

LANDSAT 1 (ERTS 1), 6126 is a payload satellite owned by GSFC (US) in SSO that was launched on Sun, 23 Jul 1972 UTC via a DELTA 0900 launch vehicle from the Air Force Western Test Range (AFWTR). Payload-class satellites include a variety of spacecraft equipped with specific instruments for various scientific and technological missions. These include communications satellites like Starlink; space stations such as the ISS; scientific satellites like the Hubble; Earth observation satellites from companies like Planet Labs, Umbra, and HawkEye 360; GPS; miniature CubeSats for education and research; and military/defense satellites.

Loading next visibility...
Identifier
6126, 1972-058A
Orbit
SSO
Country
Flag of USUS
Related business
Manufacturer
GE/MSVD
Mission
Non-operational spacecraft
Bus & Motor
NIMBUS, Unknown motor
Mass
891 kg wet, 891 kg dry
Launch date (UTC)
1972-07-23 (54 years ago)
Launch vehicle
DELTA 0900
Launch site
Air Force Western Test Range (AFWTR)
Object type
Payload
Rocket body
Debris
Shape & HBR
Unknown
Radar Cross Section
Large (>1 m²)

Expand to show TLE details & history
Last TLE update: 20 hours ago

TLE from 20 hours ago
0 LANDSAT 1 (ERTS 1)
1 06126U 72058A   26106.69014665 -.00000224  00000-0 -12525-3 0  9997
2 06126  99.3424 135.3863 0008600  66.5088 293.6977 13.97830497739366
Epoch: 2026-04-16T16:33Z
TLE epoch observation values (Epoch: 2026-04-16T16:33:48.670Z)
Latitude
-0.00004°
Longitude
42.09944°
Altitude
901.669 km
Speed
7.403 km/s
True Right ascension
09h 01m 32s
True Declination
0° 00' 00"
Sunlit
Object was in daylight at epoch
Visualization orbit readout
Latitude
Unknown
Longitude
Unknown
Altitude
Unknown
Speed
Unknown
Apparent Right ascension
Unknown
Apparent Declination
Unknown
Sunlit
N/A
Visualization observer readout
Local Sidereal Time
18:53:03
Azimuth
Unknown
Elevation
Unknown
Doppler factor
Unknown
Orbital elements
Apogee altitude
904.795 km
Perigee altitude
892.279 km
Semi-major axis
7,276.674 km
Eccentricity
0.00086
Inclination
99.3424°
RAAN
135.3863°
Arg. of periapsis
66.5088°
True anomaly
293.60742°
Mean anomaly
293.6977°
Eccentric anomaly
293.65256°
Mean motion
3.49658 °/min
Orbital period
102.96 mins
BSTAR
-0.00012525
Loading maneuver chart data...
Computing Atmospheric mass density...
Loading historical data...
Loading historical data...
Loading historical data...
Loading historical data...
Loading historical data...
Loading historical data...
Loading historical data...

Documentation

Showing up to 5 results
|